カタログに戻る

STARLINK-1536

運用中通信VLEO
NORAD 46070·PAYLOAD·🇺🇸 United States

打ち上げ Aug 7, 2020 から Cape Canaveral Space Force Station

Loading…

次のパス (今後24時間)

TLE

最新Source: CelesTrak SupGP

元期: Sep 14, 2026, 21:58 UTC

1 46070C 20055AV  26257.91576389  .00025952  00000+0  83453-3 0  2574
2 46070  53.1579 301.1506 0001196  88.6460 163.8559 15.31689585    13

AllMySatでSTARLINK-1536をリアルタイム追跡

Download on the App Store